Orbital Elements at Epoch 2459200.5 (2020-Dec-17.0) TDB
Reference: JPL 29 (heliocentric ecliptic J2000)
Element | Value | Uncertainty (1-sigma) | Units |
e | .1070290865676636 | 3.3813e-08 | |
a | 2.461886329379719 | 9.7686e-09 | au |
q | 2.198392884312789 | 8.3373e-08 | au |
i | 6.433343099137496 | 3.9425e-06 | deg |
node | 172.6193406188401 | 3.3477e-05 | deg |
peri | 91.58965273194866 | 3.8454e-05 | deg |
M | 269.5551103490011 | 1.9428e-05 | deg |
tp | 2459554.972015350053 (2021-Dec-06.47201535) | 7.6768e-05 | TDB |
period | 1410.913607373834 3.86 | 8.3976e-06 2.299e-08 | d yr |
n | .2551538224016964 | 1.5187e-09 | deg/d |
Q | 2.725379774446649 | 1.0814e-08 | au |
|
| | Orbit Determination Parameters
Additional Information
|